Location: Newark
(34.9500°N, 139.9667°E)
Time: 03:06:40
(UTC+00:00)

deb Explorer IX - Pass Details

Date: 15 December 2019
Orbit: 548 x 1101 km, 38.8° (Epoch: 23 January)

Event Time Altitude Azimuth Distance (km) Brightness Sun altitude
Rises 09:35:36 0° 289° (WNW) 3,448 ? -25.0°
Reaches altitude 10° 09:38:01 10° 288° (WNW) 2,589 ? -25.5°
Maximum altitude 09:44:20 79° 202° (SSW) 1,018 ? -26.8°
Enters shadow 09:45:55 56° 129° (SE) 1,202 ? -27.1°
